Regional Weather Roundup
Issued by NWS

Home | Current Version | Previous Version | Text Only | Print | Product List | Glossary On
Versions: 1 2 3 4 5 6 7 8 9 10 11 12 13 14 15 16 17 18 19 20 21 22 23 24 25 26 27 28 29 30 31 32 33 34 35 36 37 38 39 40 41 42 43 44 45 46 47 48 49 50
000
ASUS45 KSLC 251810
RWRUT

UTAH REGIONAL WEATHER ROUNDUP
NATIONAL WEATHER SERVICE SALT LAKE CITY UT
1200 PM MDT MON MAY 25 2015

UTZ001>011-023>025-251900-

NORTHERN UTAH

CITY           SKY/WX    TMP DP  RH WIND       PRES   REMARKS
BRIGHAM CITY   PTSUNNY   62  48  60 W5        29.98S
HILL AFB       NOT AVBL
LOGAN          MOSUNNY   62  46  55 CALM      29.96S
OGDEN          PTSUNNY   62  47  57 CALM      29.97F
PROVO AIRPORT  PTSUNNY   59  45  58 W6        29.99F
SALT LAKE CITY MOSUNNY   64  47  53 VRB5      29.97S
VERNAL         CLOUDY    54  44  69 CALM      30.01F
WENDOVER       SUNNY     64  46  52 S7        29.98S
HEBER CITY     PTSUNNY   55  43  62 W5        30.01S
WEST JORDAN    SUNNY     63  48  59 E5        29.98F

$$

UTZ012>022-026-027-251900-

SOUTHERN/CENTRAL UTAH

CITY           SKY/WX    TMP DP  RH WIND       PRES   REMARKS
BLANDING       CLOUDY    57  47  68 SE6       30.08F
BRYCE CANYON   PTSUNNY   58  36  43 W7        30.09R
CEDAR CITY     SUNNY     62  42  47 CALM      30.03S
DELTA          PTSUNNY   63  41  45 CALM      30.00F
HANKSVILLE     MOSUNNY   68  39  34 E3        29.97S
MILFORD        MOSUNNY   64  44  48 SW8       30.01S
MOAB/CYNLANDS  SUNNY     67  42  40 VRB3      29.95S
PRICE          PTSUNNY   59  40  49 VRB5      29.99F
ST GEORGE      MOCLDY    70  45  40 W6        29.99S
KANAB          MOSUNNY   63  46  55 S7        30.07S

$$

REGIONAL REPORTS     COLORADO/ARIZONA

CITY           SKY/WX    TMP DP  RH WIND       PRES   REMARKS
CRAIG, CO      CLOUDY    52  41  66 W8        30.02S
GRAND JUNCTION MOSUNNY   57  45  64 S5        29.99S
RIFLE          PTSUNNY   56  42  59 CALM      30.02F
MONTROSE       PTSUNNY   58  45  62 NW7       30.04S
CORTEZ         MOSUNNY   58  44  60 SW12      30.03F
PAGE, AZ       SUNNY     68  47  46 E6        29.99S
GRAND CANYON   MOSUNNY   54  45  71 SW9       30.11S
KINGMAN        SUNNY     76  41  28 SW12G20   29.99S
FLAGSTAFF      LGT RAIN  52  42  69 W12G20    30.13R

$$

REGIONAL REPORTS    NEVADA/IDAHO/WYOMING

CITY           SKY/WX    TMP DP  RH WIND       PRES   REMARKS
LAS VEGAS, NV  MOSUNNY   74  50  42 S7        29.91F
ELY            PTSUNNY   60  35  39 VRB3      30.06S
ELKO           PTSUNNY   63  46  54 SW9       30.00F
POCATELLO, ID  MOSUNNY   62  47  57 SW9       29.96F
BURLEY         SUNNY     64  46  52 VRB3      29.93S
EVANSTON, WY   PTSUNNY   47  40  76 SW10      30.03F
ROCK SPRINGS   PTSUNNY   52  40  63 W8        30.02S
KEMMERER       PTSUNNY   52  41  66 W6        30.03S

$$


USA.gov is the U.S. government's official web portal to all federal, state and local government web resources and services.